Palermo, Italy

11:40 PM CET on February 07, 2016 (GMT +0100)
Punta Raisi

Weather History for LICJ - March, 2014

Change the Weather History Date:

Tuesday, March 25, 2014

  Actual Average Record
Temperature  
Mean Temperature 57 °F -  
Max Temperature 60 °F 64 °F 86 °F (2001)
Min Temperature 54 °F 54 °F 41 °F (2002)
Degree Days  
Heating Degree Days 8    
Growing Degree Days 7 (Base 50)    
Moisture  
Dew Point 46 °F    
Average Humidity 67    
Maximum Humidity 88    
Minimum Humidity 45    
Precipitation  
Precipitation 0.24 in 0.06 in - ()
Sea Level Pressure  
Sea Level Pressure 29.85 in    
Wind  
Wind Speed 17 mph ()    
Max Wind Speed 26 mph    
Max Gust Speed 33 mph    
Visibility 5.9 miles    
Events Rain    
Averages and records for this station are not official NWS values.
T = Trace of Precipitation, MM = Missing Value Source: Averaged Metar Reports

Daily Weather History Graph

Daily Weather History Graph

Search for Another Location

Airport or City:

Trip Planner

Search our weather history database for the weather conditions in past years. The results will help you decide how hot, cold, wet, or windy it might be!

Date:

Astronomy

Mar. 25, 2014 Rise Set
Actual Time 6:03 AM CET 6:23 PM CET
Civil Twilight 5:37 AM CET 6:50 PM CET
Nautical Twilight 5:06 AM CET 7:21 PM CET
Astronomical Twilight 4:34 AM CET 7:53 PM CET
Moon 2:06 AM CET (3/25) 12:40 PM CET (3/25)
Length of Visible Light 13h 12m
Length of Day
12h 20m
Waning Crescent, 34% of the Moon is Illuminated
Mar 25
Waning Crescent
Mar 30
New
Apr 7
First Quarter
Apr 15
Full
Apr 22
Last Quarter

Hourly Weather History & Observations

Time (CET) Temp. Dew Point Humidity Pressure Visibility Wind Dir Wind Speed Gust Speed Precip Events Conditions
12:20 AM 57.2 °F 44.6 °F 63% 29.95 in 6.2 mi WNW 23.0 mph - N/A   Scattered Clouds
12:50 AM 57.2 °F 44.6 °F 63% 29.95 in 6.2 mi West 23.0 mph - N/A   Scattered Clouds
1:00 AM 57 °F 45 °F 54% 29.98 in 6 mi West 17.3 mph - -   Mostly Cloudy
1:20 AM 57.2 °F 46.4 °F 67% 29.95 in 6.2 mi West 21.9 mph - N/A   Scattered Clouds
1:50 AM 57.2 °F 44.6 °F 63% 29.95 in 6.2 mi West 21.9 mph - N/A   Scattered Clouds
2:20 AM 57.2 °F 44.6 °F 63% 29.95 in 6.2 mi WNW 19.6 mph - N/A   Scattered Clouds
2:50 AM 57.2 °F 44.6 °F 63% 29.92 in 6.2 mi WNW 17.3 mph - N/A   Scattered Clouds
3:20 AM 57.2 °F 44.6 °F 63% 29.92 in 6.2 mi West 17.3 mph - N/A   Scattered Clouds
3:50 AM 55.4 °F 44.6 °F 67% 29.92 in 6.2 mi WNW 15.0 mph - N/A   Scattered Clouds
4:00 AM 56 °F 45 °F 57% 29.95 in 6 mi West 12.7 mph - -   Mostly Cloudy
4:20 AM 55.4 °F 44.6 °F 67% 29.92 in 6.2 mi West 17.3 mph - N/A   Scattered Clouds
4:50 AM 55.4 °F 44.6 °F 67% 29.92 in 6.2 mi West 13.8 mph - N/A   Scattered Clouds
5:20 AM 55.4 °F 44.6 °F 67% 29.92 in 6.2 mi West 12.7 mph - N/A   Scattered Clouds
5:50 AM 55.4 °F 44.6 °F 67% 29.92 in 6.2 mi West 10.4 mph - N/A   Scattered Clouds
6:20 AM 57.2 °F 44.6 °F 63% 29.92 in 6.2 mi West 11.5 mph - N/A   Scattered Clouds
6:50 AM 55.4 °F 44.6 °F 67% 29.92 in 6.2 mi SW 8.1 mph - N/A   Scattered Clouds
7:00 AM 55 °F 44 °F 56% 29.94 in 6 mi WSW 8.1 mph - -   Partly Cloudy
7:20 AM 55.4 °F 42.8 °F 63% 29.92 in 6.2 mi South 9.2 mph - N/A   Scattered Clouds
7:50 AM 55.4 °F 42.8 °F 63% 29.89 in 6.2 mi South 11.5 mph - N/A   Scattered Clouds
8:20 AM 57.2 °F 44.6 °F 63% 29.92 in 6.2 mi South 13.8 mph - N/A   Scattered Clouds
8:50 AM 57.2 °F 46.4 °F 67% 29.89 in 6.2 mi SSW 18.4 mph - N/A   Scattered Clouds
9:20 AM 55.4 °F 46.4 °F 72% 29.89 in 6.2 mi South 18.4 mph - N/A   Scattered Clouds
9:50 AM 55.4 °F 46.4 °F 72% 29.89 in 6.2 mi South 17.3 mph - N/A   Scattered Clouds
10:00 AM 55 °F 47 °F 66% 29.92 in 6 mi SSW 15.0 mph - -   Partly Cloudy
10:50 AM 57.2 °F 48.2 °F 72% 29.86 in 6.2 mi South 17.3 mph - N/A   Scattered Clouds
11:20 AM 57.2 °F 48.2 °F 72% 29.86 in 6.2 mi SSW 13.8 mph - N/A   Light Drizzle
11:50 AM 55.4 °F 44.6 °F 67% 29.86 in 5.6 mi SW 24.2 mph - N/A   Light Drizzle
12:20 PM 57.2 °F 44.6 °F 63% 29.83 in 6.2 mi WSW 18.4 mph - N/A   Light Drizzle
12:50 PM 57.2 °F 41.0 °F 55% 29.83 in 6.2 mi SSW 26.5 mph - N/A   Light Drizzle
1:00 PM 57 °F 42 °F 45% 29.86 in 6 mi SSW 19.6 mph - - Rain Light Rain
1:20 PM 57.2 °F 41.0 °F 55% 29.83 in 6.2 mi SSW 21.9 mph - N/A   Scattered Clouds
1:50 PM 59.0 °F 41.0 °F 51% 29.77 in 6.2 mi SSW 21.9 mph 33.4 mph N/A   Scattered Clouds
2:20 PM 59.0 °F 42.8 °F 55% 29.77 in 6.2 mi South 20.7 mph - N/A   Scattered Clouds
2:50 PM 60.8 °F 41.0 °F 48% 29.77 in 6.2 mi South 17.3 mph - N/A   Scattered Clouds
3:20 PM 59.0 °F 39.2 °F 48% 29.74 in 6.2 mi SSW 19.6 mph - N/A   Scattered Clouds
3:50 PM 59.0 °F 44.6 °F 59% 29.74 in 6.2 mi SSW 21.9 mph - N/A   Scattered Clouds
4:00 PM 59 °F 44 °F 47% 29.75 in 6 mi SSW 20.7 mph - -   Mostly Cloudy
4:20 PM 57.2 °F 48.2 °F 72% 29.71 in 6.2 mi SSW 23.0 mph - N/A Rain Light Rain
4:50 PM 57.2 °F 48.2 °F 72% 29.71 in 6.2 mi SW 25.3 mph - N/A Rain Light Rain
5:20 PM 57.2 °F 50.0 °F 77% 29.74 in 6.2 mi SW 19.6 mph - N/A Rain Light Rain
5:50 PM 55.4 °F 50.0 °F 82% 29.74 in 4.3 mi SSW 11.5 mph - N/A Rain Light Rain
6:20 PM 55.4 °F 51.8 °F 88% 29.74 in 3.7 mi West 15.0 mph - N/A Rain Rain
6:50 PM 55.4 °F 51.8 °F 88% 29.77 in 3.7 mi WSW 17.3 mph - N/A Rain Rain
7:00 PM 55 °F 52 °F 87% 29.78 in 4 mi West 15.0 mph - - Rain Light Rain
7:20 PM 55.4 °F 50.0 °F 82% 29.77 in 4.3 mi West 18.4 mph - N/A Rain Light Rain
7:50 PM 55.4 °F 48.2 °F 77% 29.77 in 5.0 mi WNW 23.0 mph - N/A   Mostly Cloudy
8:20 PM 57.2 °F 50.0 °F 77% 29.80 in 6.2 mi West 20.7 mph - N/A   Mostly Cloudy
8:50 PM 55.4 °F 50.0 °F 82% 29.80 in 6.2 mi NW 11.5 mph - N/A   Light Drizzle
9:20 PM 57.2 °F 50.0 °F 77% 29.80 in 6.2 mi West 21.9 mph - N/A   Mostly Cloudy
9:50 PM 57.2 °F 48.2 °F 72% 29.80 in 6.2 mi West 20.7 mph - N/A   Scattered Clouds
10:00 PM 57 °F 49 °F 65% 29.83 in 6 mi West 16.1 mph - -   Mostly Cloudy
10:20 PM 57.2 °F 48.2 °F 72% 29.80 in 6.2 mi West 17.3 mph - N/A   Scattered Clouds
10:50 PM 55.4 °F 50.0 °F 82% 29.80 in 4.3 mi West 20.7 mph - N/A Rain Light Rain
11:20 PM 57.2 °F 50.0 °F 77% 29.80 in 5.6 mi West 20.7 mph - N/A Rain Light Rain
11:50 PM 57.2 °F 48.2 °F 72% 29.83 in 6.2 mi West 21.9 mph - N/A   Mostly Cloudy